Location: Mountain View
(37.3861°N, 122.0839°W)
Time: 01:25:05
(UTC-07:00)

OTV 5 (USA 277) - Visible Passes

Search period start: 21 September 2018 00:00
Search period end: 01 October 2018 00:00
Orbit: 387 x 394 km, 54.5° (Epoch: 08 September)

Date Brightness Start Highest point End Pass type
(mag) Time Alt. Az. Time Alt. Az. Time Alt. Az.
24 Sep ? 06:02:14 10° SSE 06:04:18 16° SE 06:06:23 10° E visible
26 Sep ? 05:44:50 13° SSW 05:47:21 33° SE 05:50:17 10° ENE visible
27 Sep ? 04:51:21 14° ESE 04:51:21 14° ESE 04:52:57 10° E visible
27 Sep ? 06:23:48 10° WSW 06:26:51 40° NW 06:29:54 10° NNE visible
28 Sep ? 05:30:08 66° SSW 05:30:28 78° SE 05:33:41 10° NE visible
29 Sep ? 04:36:21 15° ENE 04:36:21 15° ENE 04:37:03 10° ENE visible
29 Sep ? 06:08:46 17° WNW 06:10:09 22° NW 06:12:46 10° NNE visible
30 Sep ? 05:14:52 30° NNE 05:14:52 30° NNE 05:16:48 10° NE visible
